Location: Unspecified
(22.6800°N, 112.2000°E)
Time: 14:47:24
(UTC+08:00)

S-56A Canister/Altair - Pass Details

Date: 29 July 2021
Orbit: 632 x 2500 km, 38.9° (Epoch: 24 September)

Event Time Altitude Azimuth Distance (km) Brightness Sun altitude
Rises 14:41:58 0° 234° (SW) 5,086 12.1 60.7°
Reaches altitude 10° 14:44:55 10° 235° (SW) 4,305 11.9 60.0°
Maximum altitude 14:57:29 89° 324° (NW) 2,358 11.2 57.1°
Drops below altitude 10° 15:12:52 10° 56° (NE) 5,143 11.5 53.6°
Sets 15:16:46 0° 57° (ENE) 6,088 11.8 52.7°
